Hickory, NC

9:04 AM EST on November 22, 2017 (GMT -0500)
Hickory Regional

Weather History for KHKY - July, 2014

Change the Weather History Date:

Wednesday, July 9, 2014

  Actual Average Record
Temperature  
Mean Temperature 79 °F -  
Max Temperature 89 °F 89 °F 99 °F (1977)
Min Temperature 72 °F 67 °F 57 °F (1972)
Cooling Degree Days 14    
Growing Degree Days 29 (Base 50)    
Moisture  
Dew Point 66 °F    
Average Humidity 69    
Maximum Humidity 79    
Minimum Humidity 49    
Precipitation  
Precipitation 0.00 in - - ()
Sea Level Pressure  
Sea Level Pressure 29.94 in    
Wind  
Wind Speed 3 mph (SW)    
Max Wind Speed 9 mph    
Max Gust Speed -    
Visibility 10 miles    
Events      
Averages and records for this station are not official NWS values.
T = Trace of Precipitation, MM = Missing Value Source: NWS Daily Summary

Daily Weather History Graph

Daily Weather History Graph

Search for Another Location

Airport or City:

Trip Planner

Search our weather history database for the weather conditions in past years. The results will help you decide how hot, cold, wet, or windy it might be!

Date:

Astronomy

Jul. 09, 2014 Rise Set
Actual Time 6:17 AM EDT 8:44 PM EDT
Civil Twilight 5:47 AM EDT 9:13 PM EDT
Nautical Twilight 5:11 AM EDT 9:50 PM EDT
Astronomical Twilight 4:30 AM EDT 10:30 PM EDT
Moon 5:56 PM EDT (7/9) 3:31 AM EDT (7/9)
Length of Visible Light 15h 26m
Length of Day
14h 26m
Waxing Gibbous, 89% of the Moon is Illuminated
Jul 9
Waxing Gibbous
Jul 12
Full
Jul 18
Last Quarter
Jul 26
New
Aug 3
First Quarter

Hourly Weather History & Observations

Time (EDT) Temp. Heat Index Dew Point Humidity Pressure Visibility Wind Dir Wind Speed Gust Speed Precip Events Conditions
12:53 AM 73.0 °F - 66.0 °F 79% 29.93 in 10.0 mi NW 5.8 mph - N/A   Clear
1:53 AM 73.0 °F - 66.0 °F 79% 29.93 in 10.0 mi NW 3.5 mph - N/A   Scattered Clouds
2:53 AM 73.0 °F - 66.0 °F 79% 29.90 in 10.0 mi Calm Calm - N/A   Scattered Clouds
3:53 AM 72.0 °F - 64.9 °F 78% 29.90 in 10.0 mi Calm Calm - N/A   Mostly Cloudy
4:53 AM 72.0 °F - 64.9 °F 78% 29.91 in 10.0 mi Calm Calm - N/A   Scattered Clouds
5:53 AM 73.0 °F - 64.9 °F 76% 29.92 in 10.0 mi Calm Calm - N/A   Mostly Cloudy
6:53 AM 72.0 °F - 64.9 °F 78% 29.93 in 10.0 mi Calm Calm - N/A   Partly Cloudy
7:53 AM 73.0 °F - 66.0 °F 79% 29.95 in 10.0 mi Calm Calm - N/A   Mostly Cloudy
8:53 AM 77.0 °F - 66.0 °F 69% 29.96 in 10.0 mi Calm Calm - N/A   Mostly Cloudy
10:53 AM 81.0 °F 83.3 °F 66.9 °F 62% 29.96 in 7.0 mi South 5.8 mph - N/A   Partly Cloudy
11:53 AM 80.1 °F 82.1 °F 66.0 °F 62% 29.98 in 10.0 mi South 4.6 mph - N/A   Overcast
12:53 PM 81.0 °F 83.3 °F 66.9 °F 62% 29.98 in 10.0 mi SSW 4.6 mph - N/A   Mostly Cloudy
1:53 PM 80.1 °F 82.7 °F 68.0 °F 67% 29.96 in 10.0 mi SSW 6.9 mph - N/A   Scattered Clouds
2:53 PM 84.0 °F 85.8 °F 64.9 °F 53% 29.93 in 10.0 mi WSW 5.8 mph - N/A   Clear
3:53 PM 86.0 °F 87.6 °F 64.9 °F 49% 29.92 in 10.0 mi SW 9.2 mph - N/A   Partly Cloudy
4:53 PM 84.0 °F 84.9 °F 63.0 °F 49% 29.91 in 10.0 mi WNW 6.9 mph - N/A   Mostly Cloudy
5:53 PM 82.9 °F 84.6 °F 64.9 °F 54% 29.92 in 10.0 mi WSW 3.5 mph - N/A   Overcast
6:53 PM 84.0 °F 85.8 °F 64.9 °F 53% 29.92 in 10.0 mi SW 5.8 mph - N/A   Clear
8:53 PM 77.0 °F - 68.0 °F 74% 29.94 in 10.0 mi SSW 8.1 mph - N/A   Clear
9:53 PM 75.9 °F - 68.0 °F 76% 29.95 in 10.0 mi South 5.8 mph - N/A   Clear
10:53 PM 75.0 °F - 68.0 °F 79% 29.98 in 10.0 mi South 5.8 mph - N/A   Partly Cloudy
11:53 PM 75.0 °F - 66.9 °F 76% 29.99 in 10.0 mi Calm Calm - N/A   Mostly Cloudy